Home > Weather > Birmingham > Past weeks

Flag for U.S.A. Weather for the Past 2 Weeks in Birmingham, Alabama, U.S.A.

Now
30 °F

Scattered clouds.


Feels Like: 30 °F
Forecast: 29 / 50 °F
Wind: No wind

Location: Birmingham International Airport

Current Time: Feb 6, 2016 at 7:48:15 AM

Latest Report: Feb 6, 2016 at 6:53 AM


Visibility: 10 mi

Pressure: 30.40 "Hg

Humidity: 79%

Dew point: 24 °F

Location of BirminghamLocation

Historic Weather in Birmingham — Graph

°F

Birmingham Temperature Yesterday

Maximum temperature yesterday: 50 °F (at 1:53 PM)
Minimum temperature yesterday: 28 °F (at 5:53 AM)
Average temperature yesterday: 39 °F

High & Low Weather Summary for the Past Weeks

 TemperatureHumidityPressure
High76 °F (Feb 2, 11:53 AM)100% (Jan 22, 10:53 AM)30.50 "Hg (Jan 22, 10:53 AM)
Low22 °F (Jan 24, 2:53 AM)25% (Feb 5, 3:53 PM)29.61 "Hg (Jan 22, 5:57 AM)
Average48 °F70%30.08 "Hg
* Reported Jan 22 5:57 AM — Feb 6 5:53 AM, Birmingham, Weather by CustomWeather, © 2016

Note: Actual official high and low records may vary slightly from our data, if they occured in-between our weather recording intervals... More about our weather records

Advertising

Birmingham Weather History for the Previous 24 Hours

 ConditionsComfort  
Time TempWeatherWind HumidityBarometerVisibility
5:53 AM
Sat, Feb 6
31 °FClear.No wind76%30.39 "Hg10 mi
4:53 AM32 °FClear.No wind69%30.38 "Hg10 mi
3:53 AM34 °FPassing clouds.No wind67%30.37 "Hg10 mi
2:53 AM37 °FClear.3 mph50%30.37 "Hg10 mi
1:53 AM36 °FPassing clouds.5 mph54%30.37 "Hg10 mi
12:53 AM33 °FClear.No wind72%30.39 "Hg10 mi
11:53 PM
Fri, Feb 5
34 °FPassing clouds.No wind73%30.40 "Hg10 mi
10:53 PM35 °FPassing clouds.No wind67%30.42 "Hg10 mi
9:53 PM36 °FPassing clouds.No wind62%30.41 "Hg10 mi
8:53 PM35 °FClear.No wind67%30.41 "Hg10 mi
7:53 PM38 °FClear.No wind58%30.41 "Hg10 mi
6:53 PM38 °FClear.No wind60%30.42 "Hg10 mi
5:53 PM41 °FPassing clouds.5 mph49%30.42 "Hg10 mi
4:53 PM48 °FPassing clouds.7 mph28%30.40 "Hg10 mi
3:53 PM50 °FSunny.9 mph25%30.39 "Hg10 mi
2:53 PM50 °FPassing clouds.10 mph26%30.41 "Hg10 mi
1:53 PM50 °FPassing clouds.10 mph27%30.42 "Hg10 mi
12:53 PM48 °FPassing clouds.13 mph28%30.43 "Hg10 mi
11:53 AM48 °FPassing clouds.13 mph30%30.47 "Hg10 mi
10:53 AM46 °FPassing clouds.12 mph33%30.49 "Hg10 mi
9:53 AM43 °FPassing clouds.9 mph40%30.50 "Hg10 mi
8:53 AM39 °FSunny.7 mph48%30.49 "Hg10 mi
7:53 AM33 °FSunny.7 mph66%30.46 "Hg10 mi
Weather by CustomWeather, © 2016

See weather overviewHow to use our weather pages